Regional Weather Roundup
Issued by NWS Charleston, WV

Home | Current Version | Previous Version | Text Only | Print | Product List | Glossary Off
Versions: 1 2 3 4 5 6 7 8 9 10 11 12 13 14 15 16 17 18 19 20 21 22 23 24 25 26 27 28 29 30 31 32 33 34 35 36 37 38 39 40 41 42 43 44 45 46 47 48 49 50

000
ASUS41 KRLX 280610
RWRRLX
West Virginia Regional Weather Roundup
National Weather Service Charleston WV
200 AM EDT TUE APR 28 2015

Note: "fair" indicates few or no clouds below 12,000 feet with no
significant weather and/or obstructions to visibility.

WVZ003-280700-
Northern Panhandle of West Virginia

CITY           SKY/WX    TMP DP  RH WIND       PRES   REMARKS
WHEELING       PTCLDY    39  33  79 W5        30.03F
$$

WVZ009-280700-
Northwest West Virginia

CITY           SKY/WX    TMP DP  RH WIND       PRES   REMARKS
PARKERSBURG    CLOUDY    43  33  68 NW3       30.08F
$$

WVZ006-280700-
Western West Virginia

CITY           SKY/WX    TMP DP  RH WIND       PRES   REMARKS
HUNTINGTON     CLEAR     43  35  73 CALM      30.04S
$$

WVZ015-280700-
West Central West Virginia

CITY           SKY/WX    TMP DP  RH WIND       PRES   REMARKS
CHARLESTON     CLOUDY    44  33  65 NE6       30.04S
$$

WVZ022-031-280700-
North Central West Virginia

CITY           SKY/WX    TMP DP  RH WIND       PRES   REMARKS
CLARKSBURG     CLOUDY    42  33  70 N3        30.03S
MORGANTOWN     CLOUDY    43  31  62 NW6       30.04R
$$

WVZ025-035-042-045-280700-
Southern West Virginia

CITY           SKY/WX    TMP DP  RH WIND       PRES   REMARKS
BECKLEY        CLOUDY    42  33  70 NW5       29.99S
LOGAN            N/A     45  36  70 N5        29.98S
BLUEFIELD      MOCLDY    44  31  60 N3        29.97F
LEWISBURG      MOCLDY    42  33  71 CALM      29.97S
$$

WVZ047-280700-
Northern Mountains of West Virginia

CITY           SKY/WX    TMP DP  RH WIND       PRES   REMARKS
ELKINS         CLOUDY    40  30  67 N3        30.00F
$$

WVZ052-280700-
Eastern Panhandle of West Virginia

CITY           SKY/WX    TMP DP  RH WIND       PRES   REMARKS
MARTINSBURG    CLOUDY    47  33  58 NW10      29.95S
PETERSBURG     CLOUDY    44  31  61 NW3       30.01F
$$


USA.gov is the U.S. government's official web portal to all federal, state and local government web resources and services.